• In Belgien
  • Länderverzeichnis
  • Für 7 Tage
  • Wassertemperatur
  • Satellitenkarten
  • Wetterkarte
  • Widgets
  • user-avatar
    Anmelden

    Stündliche Wetter Melbourne

    Heute, 26 Juni, Montag

    Zeit Temperatur Niederschläge Wind Luftdruck Luftfeuchtigkeit
    00:00 +9°C° 0 mm 2 m/S 762 mmHg 92%
    01:00 +9°C° 0 mm 2 m/S 763 mmHg 93%
    02:00 +8°C° 0 mm 2 m/S 763 mmHg 94%
    03:00 +8°C° 0 mm 2 m/S 763 mmHg 95%
    04:00 +7°C° 0 mm 2 m/S 763 mmHg 95%
    05:00 +6°C° 0 mm 2 m/S 764 mmHg 95%
    06:00 +6°C° 0 mm 2 m/S 764 mmHg 95%
    07:00 +6°C° 0 mm 2 m/S 765 mmHg 95%
    08:00 +7°C° 0 mm 2 m/S 765 mmHg 92%
    09:00 +9°C° 0 mm 2 m/S 766 mmHg 88%
    10:00 +11°C° 0 mm 1 m/S 766 mmHg 84%
    11:00 +12°C° 0 mm 1 m/S 766 mmHg 79%
    12:00 +13°C° 0 mm 1 m/S 766 mmHg 73%
    13:00 +14°C° 0 mm 1 m/S 766 mmHg 67%
    14:00 +14°C° 0 mm 1 m/S 766 mmHg 68%
    15:00 +13°C° 0 mm 1 m/S 766 mmHg 69%
    16:00 +13°C° 0 mm 1 m/S 766 mmHg 71%
    17:00 +11°C° 0 mm 1 m/S 767 mmHg 76%
    18:00 +10°C° 0 mm 1 m/S 767 mmHg 82%
    19:00 +8°C° 0 mm 1 m/S 767 mmHg 88%
    20:00 +7°C° 0 mm 1 m/S 768 mmHg 89%
    21:00 +7°C° 0 mm 1 m/S 768 mmHg 90%
    22:00 +7°C° 0 mm 1 m/S 768 mmHg 90%
    23:00 +7°C° 0 mm 1 m/S 768 mmHg 92%

    Morgen, 27 Juni, Dienstag

    Zeit Temperatur Niederschläge Wind Luftdruck Luftfeuchtigkeit
    00:00 +6°C° 0 mm 1 m/S 768 mmHg 93%
    01:00 +6°C° 0 mm 1 m/S 768 mmHg 95%
    02:00 +6°C° 0 mm 1 m/S 768 mmHg 94%
    03:00 +6°C° 0 mm 1 m/S 768 mmHg 94%
    04:00 +7°C° 0 mm 1 m/S 768 mmHg 93%
    05:00 +7°C° 0 mm 1 m/S 768 mmHg 93%
    06:00 +7°C° 0 mm 1 m/S 768 mmHg 93%
    07:00 +7°C° 0 mm 1 m/S 768 mmHg 93%
    08:00 +8°C° 0 mm 1 m/S 768 mmHg 87%
    09:00 +9°C° 0 mm 1 m/S 768 mmHg 82%
    10:00 +11°C° 0 mm 1 m/S 768 mmHg 76%
    11:00 +12°C° 0 mm 2 m/S 768 mmHg 70%
    12:00 +13°C° 0 mm 2 m/S 767 mmHg 64%
    13:00 +14°C° 0 mm 2 m/S 767 mmHg 58%
    14:00 +13°C° 0 mm 2 m/S 766 mmHg 60%
    15:00 +13°C° 0 mm 2 m/S 766 mmHg 61%
    16:00 +13°C° 0 mm 2 m/S 766 mmHg 63%
    17:00 +12°C° 0 mm 2 m/S 766 mmHg 69%
    18:00 +10°C° 0 mm 2 m/S 766 mmHg 74%
    19:00 +9°C° 0 mm 2 m/S 766 mmHg 80%
    20:00 +8°C° 0 mm 2 m/S 766 mmHg 82%
    21:00 +8°C° 0 mm 2 m/S 767 mmHg 84%
    22:00 +8°C° 0 mm 2 m/S 767 mmHg 86%
    23:00 +7°C° 0 mm 2 m/S 766 mmHg 87%

    übermorgen, 28 Juni, Mittwoch

    Zeit Temperatur Niederschläge Wind Luftdruck Luftfeuchtigkeit
    00:00 +7°C° 0 mm 2 m/S 766 mmHg 89%
    01:00 +7°C° 0 mm 2 m/S 766 mmHg 90%
    02:00 +7°C° 0 mm 2 m/S 766 mmHg 90%
    03:00 +7°C° 0 mm 2 m/S 766 mmHg 91%
    04:00 +7°C° 0 mm 2 m/S 766 mmHg 91%
    05:00 +7°C° 0 mm 2 m/S 766 mmHg 92%
    06:00 +7°C° 0 mm 2 m/S 766 mmHg 92%
    07:00 +7°C° 0 mm 2 m/S 766 mmHg 93%
    08:00 +8°C° 0 mm 2 m/S 766 mmHg 88%
    09:00 +9°C° 0 mm 3 m/S 766 mmHg 82%
    10:00 +10°C° 0 mm 3 m/S 766 mmHg 77%
    11:00 +12°C° 0 mm 2 m/S 765 mmHg 72%
    12:00 +14°C° 0 mm 2 m/S 765 mmHg 66%
    13:00 +15°C° 0 mm 2 m/S 764 mmHg 61%
    14:00 +15°C° 0 mm 2 m/S 764 mmHg 62%
    15:00 +15°C° 0 mm 2 m/S 763 mmHg 63%
    16:00 +14°C° 0 mm 2 m/S 763 mmHg 64%
    17:00 +13°C° 0 mm 2 m/S 763 mmHg 71%
    18:00 +12°C° 0 mm 2 m/S 763 mmHg 77%
    19:00 +9°C° 0 mm 2 m/S 764 mmHg 84%
    20:00 +9°C° 0,2 mm 2 m/S 764 mmHg 86%
    21:00 +9°C° 0,2 mm 2 m/S 764 mmHg 89%
    22:00 +9°C° 0,2 mm 2 m/S 764 mmHg 91%
    23:00 +9°C° 0,5 mm 2 m/S 763 mmHg 93%

    29 Juni, Donnerstag

    Zeit Temperatur Niederschläge Wind Luftdruck Luftfeuchtigkeit
    00:00 +9°C° 0,5 mm 2 m/S 763 mmHg 94%
    01:00 +9°C° 0,5 mm 3 m/S 763 mmHg 95%
    02:00 +8°C° 0,1 mm 3 m/S 763 mmHg 94%
    03:00 +8°C° 0,1 mm 3 m/S 762 mmHg 94%
    04:00 +8°C° 0,1 mm 3 m/S 762 mmHg 93%
    05:00 +8°C° 0 mm 3 m/S 762 mmHg 92%
    06:00 +8°C° 0 mm 3 m/S 762 mmHg 92%
    07:00 +7°C° 0 mm 3 m/S 762 mmHg 91%
    08:00 +7°C° 0 mm 4 m/S 762 mmHg 88%
    09:00 +7°C° 0 mm 4 m/S 762 mmHg 85%
    10:00 +8°C° 0 mm 5 m/S 761 mmHg 82%
    11:00 +8°C° 0,6 mm 5 m/S 761 mmHg 82%
    12:00 +8°C° 0,6 mm 5 m/S 761 mmHg 82%
    13:00 +8°C° 0,6 mm 6 m/S 761 mmHg 83%
    14:00 +8°C° 0,4 mm 5 m/S 761 mmHg 83%
    15:00 +8°C° 0,4 mm 5 m/S 761 mmHg 83%
    16:00 +7°C° 0,4 mm 5 m/S 762 mmHg 83%
    17:00 +7°C° 0,4 mm 5 m/S 762 mmHg 84%
    18:00 +6°C° 0,4 mm 5 m/S 763 mmHg 85%
    19:00 +5°C° 0,4 mm 5 m/S 764 mmHg 86%
    20:00 +5°C° 0,2 mm 5 m/S 764 mmHg 85%
    21:00 +5°C° 0,2 mm 5 m/S 765 mmHg 84%
    22:00 +5°C° 0,2 mm 5 m/S 766 mmHg 83%
    23:00 +5°C° 0 mm 4 m/S 766 mmHg 82%

    30 Juni, Freitag

    Zeit Temperatur Niederschläge Wind Luftdruck Luftfeuchtigkeit
    00:00 +5°C° 0 mm 4 m/S 766 mmHg 81%
    01:00 +5°C° 0 mm 4 m/S 767 mmHg 80%
    02:00 +5°C° 0 mm 4 m/S 767 mmHg 79%
    03:00 +5°C° 0 mm 4 m/S 767 mmHg 79%
    04:00 +7°C° 0 mm 3 m/S 767 mmHg 79%
    05:00 +5°C° 0 mm 3 m/S 768 mmHg 79%
    06:00 +5°C° 0 mm 3 m/S 768 mmHg 80%
    07:00 +5°C° 0 mm 3 m/S 769 mmHg 81%
    08:00 +7°C° 0 mm 3 m/S 769 mmHg 77%
    09:00 +8°C° 0 mm 3 m/S 770 mmHg 73%
    10:00 +9°C° 0 mm 3 m/S 770 mmHg 70%
    11:00 +9°C° 0 mm 3 m/S 770 mmHg 66%
    12:00 +10°C° 0 mm 3 m/S 770 mmHg 62%
    13:00 +10°C° 0 mm 3 m/S 769 mmHg 59%
    14:00 +10°C° 0 mm 2 m/S 769 mmHg 59%
    15:00 +10°C° 0 mm 2 m/S 769 mmHg 60%
    16:00 +11°C° 0 mm 1 m/S 769 mmHg 60%
    17:00 +9°C° 0 mm 1 m/S 770 mmHg 69%
    18:00 +7°C° 0 mm 1 m/S 770 mmHg 77%
    19:00 +5°C° 0 mm 1 m/S 770 mmHg 85%
    20:00 +5°C° 0 mm 1 m/S 770 mmHg 85%
    21:00 +5°C° 0 mm 1 m/S 770 mmHg 85%
    22:00 +4°C° 0 mm 2 m/S 770 mmHg 85%
    23:00 +4°C° 0 mm 2 m/S 770 mmHg 85%

    1 Juli, Samstag

    Zeit Temperatur Niederschläge Wind Luftdruck Luftfeuchtigkeit
    00:00 +4°C° 0 mm 2 m/S 770 mmHg 84%
    01:00 +4°C° 0 mm 2 m/S 770 mmHg 84%
    02:00 +4°C° 0 mm 2 m/S 770 mmHg 84%
    03:00 +4°C° 0 mm 2 m/S 770 mmHg 84%
    04:00 +4°C° 0 mm 2 m/S 770 mmHg 85%
    05:00 +4°C° 0 mm 2 m/S 770 mmHg 83%
    06:00 +3°C° 0 mm 3 m/S 770 mmHg 82%
    07:00 +3°C° 0 mm 3 m/S 770 mmHg 81%
    08:00 +5°C° 0 mm 3 m/S 770 mmHg 75%
    09:00 +7°C° 0 mm 3 m/S 770 mmHg 69%
    10:00 +7°C° 0 mm 4 m/S 770 mmHg 63%
    11:00 +8°C° 0 mm 4 m/S 769 mmHg 59%
    12:00 +10°C° 0 mm 4 m/S 769 mmHg 55%
    13:00 +12°C° 0 mm 4 m/S 768 mmHg 51%
    14:00 +12°C° 0 mm 4 m/S 768 mmHg 52%
    15:00 +11°C° 0 mm 4 m/S 768 mmHg 53%
    16:00 +11°C° 0 mm 3 m/S 768 mmHg 54%
    17:00 +10°C° 0 mm 4 m/S 768 mmHg 58%
    18:00 +8°C° 0 mm 4 m/S 768 mmHg 62%
    19:00 +7°C° 0 mm 4 m/S 768 mmHg 65%
    20:00 +7°C° 0 mm 4 m/S 768 mmHg 65%
    21:00 +7°C° 0 mm 4 m/S 768 mmHg 64%
    22:00 +7°C° 0 mm 4 m/S 768 mmHg 64%
    23:00 +6°C° 0 mm 4 m/S 767 mmHg 63%
    Mehr zeigen